Regional Weather Roundup
Issued by NWS Charleston, SC

Current Version | Previous Version | Graphics & Text | Print | Product List | Glossary On
Versions: 1 2 3 4 5 6 7 8 9 10 11 12 13 14 15 16 17 18 19 20 21 22 23 24 25 26 27 28 29 30 31 32 33 34 35 36 37 38 39 40 41 42 43 44 45 46 47 48 49 50
000 ASUS42 KCHS 041112 RWRCHS REGIONAL WEATHER ROUNDUP NATIONAL WEATHER SERVICE CHARLESTON SC 600 AM EST SUN DEC 04 2016 NOTE: "FAIR" INDICATES FEW OR NO CLOUDS BELOW 12,000 FEET WITH NO SIGNIFICANT WEATHER AND/OR OBSTRUCTIONS TO VISIBILITY. NOT ALL STATIONS ARE QUALITY CONTROLLED. USE DATA WITH CAUTION... ESPECIALLY DEWPOINT OBSERVATIONS. SCZ027-030-031-034>040-042>050-041200- ...SOUTHEAST SOUTH CAROLINA... CITY SKY/WX TMP DP RH WIND PRES REMARKS N CHARLESTON CLOUDY 50 37 61 NE6 30.21F WATERFRONT PRK N/A 52 43 71 N9 30.21S MOUNT PLEASANT NOT AVBL JOHNS ISLAND FAIR 52 39 62 N7 30.21F PINOPOLIS N/A 52 37 58 NE8 30.15S MONCKS CORNER CLOUDY 48 32 53 NE7 30.23F SUMMERVILLE CLOUDY 48 41 76 NE5 30.23F BEAUFORT MCAS PTCLDY 51 41 68 NE9 30.19F BEAUFORT ARPT FAIR 52 43 71 NE13 30.18F HILTON HEAD IS NOT AVBL WALTERBORO CLOUDY 52 36 54 NE5 30.22R ALLENDALE CLOUDY 50 37 62 VRB5 30.19F ...SOUTHERN MIDLANDS AND PEE DEE... CITY SKY/WX TMP DP RH WIND PRES REMARKS GEORGETOWN NOT AVBL KINGSTREE CLOUDY 45 39 81 CALM 30.25S ORANGEBURG CLOUDY 48 41 76 NE7 30.22S BARNWELL NOT AVBL AIKEN CLOUDY 45 39 81 NE8 30.24R MANNING NOT AVBL COLUMBIA CLOUDY 49 42 77 NE5 30.24R SUMTER CLOUDY 46 43 88 NE5 30.23R FLORENCE CLOUDY 47 41 80 N3 30.26S MYRTLE BEACH CLOUDY 48 34 57 NE9 30.27S N MYRTLE BEACH CLOUDY 47 37 68 N6 30.25R $$ GAZ063-065-086>088-099>101-113>116-118-119-134>141-150-041200- ...SOUTHEAST GEORGIA... CITY SKY/WX TMP DP RH WIND PRES REMARKS SAVANNAH ARPT MOCLDY 52 43 71 NE9 30.17F HUNTER AAF CLOUDY 54 48 80 NE6 30.13F FORT STEWART CLOUDY 51 44 75 CALM 30.12F STATESBORO CLOUDY 51 43 73 E5 30.17S SYLVANIA CLOUDY N/A N/A N/A E6 30.19S CLAXTON CLOUDY 52 45 77 NE8 30.16R ...CSRA...CENTRAL AND FAR SOUTHEAST GEORGIA... CITY SKY/WX TMP DP RH WIND PRES REMARKS THOMSON CLOUDY 49 45 86 E3 30.24S AUGUSTA-BUSH CLOUDY 51 41 68 NE7 30.20R AUGUSTA-DANIEL CLOUDY 50 39 66 NE6 30.21R SWAINSBORO CLOUDY 52 37 58 E8 30.17R VIDALIA MOCLDY 52 46 82 E10 30.14S EASTMAN FAIR 53 34 48 E5 30.15S HAZLEHURST FAIR 54 46 76 E6 30.12R ALMA CLOUDY 52 46 80 VRB6 30.11R WAYCROSS CLOUDY 56 52 89 E6 30.11R JESUP CLOUDY 54 52 94 E7 30.13F BAXLEY FAIR 52 48 87 E6 30.12S BRUNSWICK CLOUDY 61 55 82 E7 30.14S SAINT SIMONS CLOUDY 64 55 72 E10 30.12S $$ SCZ027-028-034-036>038-045-046-048>050-GAZ119-141-041200- ...LAKE AND SUPPLEMENTAL COASTAL OBSERVATIONS... STATION/POSITION TIME TEMP WIND PRES WAVE SWELL AIR SEA DIR/SP/G HT/PER HT/PER/DIR (UTC) (F) (DEG/KT/KT) (MB) (FT/S) (FT/S/D) WINYAH BAY 0945 48 330/ 6 1023.0 LAKE MURRAY 1020 47 40/ 4/ 6 1023.0 ACE BASIN NERRS NOT AVBL FORT PULASKI 1042 56 62 40/ 10/ 13 1021.7S SAPELO ISLAND 1000 61 70/ 6 1020.0 $$ ANZ835-935-AMZ111-154-330-350-352-354-370-450-454-472-041200- ...C-MAN AND BUOY OBSERVATIONS... STATION/POSITION TIME TEMP WIND PRES WAVE SWELL AIR SEA DIR/SP/G HT/PER HT/PER/DIR (UTC) (F) (DEG/KT/KT) (MB) (FT/S) (FT/S/D) BUOY 41004 1050 62 74 50/ 8/ 14 1022.0F 3/ 8 2/100/ 8 BUOY 41008 1050 65 64 90/ 14/ 16 1020.3R 4/ 5 2/110/ 7 FOLLY BEACH CMAN 1000 53 20/ 10/ 12 1023.3F CAPERS NEARSHORE 1008 53 62 30/ 12/ 16 1022.9F FRIPP NEARSHORE 1008 57 61 50/ 14/ 17 1022.2F STATION/POSITION TIME TEMP WIND PRES WAVE SWELL AIR SEA DIR/SP/G HT/PER HT/PER/DIR (UTC) (F) (DEG/KT/KT) (MB) (FT/S) (FT/S/D) 5E ST. MARYS GA 1100 65 N/A 4/ 5 FRYING PAN BUOY 1050 60 73 40/ 8/ 14 1023.3R 3/ 9 3/ 80/ 9 BUOY 41025 1050 54 75 20/ 14/ 19 1023.1F 5/ 9 5/ 50/ 9 CAPE LOOKOUT NC 1000 49 10/ 10/ 12 1023.4F BUOY 41002 1050 64 73 60/ 10/ 14 1021.2R 5/10 5/ 40/10 BUOY 41010 NOT AVBL ST AUGUSTINE FL 1100 68 66 110/ 9/ 10 1020.3S $$

USA.gov is the U.S. government's official web portal to all federal, state and local government web resources and services.